If you wish to contribute or participate in the discussions about articles you are invited to join SKYbrary as a registered user

 Actions

Antonio Narino Airport

From SKYbrary Wiki

SKPS
Airport
ICAO: SKPS – IATA: PSO
Summary
Name Antonio Narino Airport
Region South America and Caribbean
Territory Colombia CO.gif
Location Chachagui, Narino Department
Serving Pasto
Elevation 1,813.865 m
5,951 ft1,813.865 m
Coordinates 1° 23' 50.03" N, 77° 17' 25.88" W
Runways
Designator Length Width Surface ROPS
2/20 2312 m7,585.302 ft
40 m131.234 ft
ASP /


METAR
Observation SKPS 061500Z 00000KT 9999 SCT023 BKN080 20/12 A3024
Station Pasto / Antonio Narin
Date/Time 06 June 2020 15:00:00
Wind direction
Wind speed 00 kts
Lowest cloud amount scattered clouds
Temperature 20°C
Dew point 12°C
Humidity 60%
QNH hPa
Weather condition n/a

Antonio Nariño Airport is located in the town of Chachagüí and serves the city of Pasto in the Nariño Department of Colombia. The airport is 35 km18.898 nm
35,000 m
114,829.396 ft
north of Pasto.

Climatology

Subtropical highland climate (Köppen climate classification Cwb)

Maps

Terrain

Loading map...

Airport Layout

Loading map...


Accidents & Serious Incidents at or in vicinity of SKPS

None on SKYbrary